TimeCDT,TemperatureF,Dew PointF,Humidity,Sea Level PressureIn,VisibilityMPH,Wind Direction,Wind SpeedMPH,Gust SpeedMPH,PrecipitationIn,Events,Conditions,WindDirDegrees,DateUTC
12:15 AM,46.9,37.4,69,30.05,10.0,SE,3.5,-,N/A,,Clear,130,2013-10-20 05:15:00
12:35 AM,49.1,36.5,62,30.05,10.0,Calm,Calm,-,N/A,,Clear,0,2013-10-20 05:35:00
12:55 AM,48.2,36.5,64,30.04,10.0,South,4.6,-,N/A,,Clear,190,2013-10-20 05:55:00
1:15 AM,47.5,36.9,67,30.04,10.0,South,4.6,-,N/A,,Clear,190,2013-10-20 06:15:00
1:35 AM,46.8,36.1,67,30.04,10.0,South,4.6,-,N/A,,Clear,180,2013-10-20 06:35:00
1:55 AM,46.6,36.5,68,30.03,10.0,SSW,5.8,-,N/A,,Clear,200,2013-10-20 06:55:00
2:15 AM,46.4,36.0,67,30.03,10.0,SSW,4.6,-,N/A,,Clear,200,2013-10-20 07:15:00
2:35 AM,46.4,36.0,67,30.03,10.0,SSW,3.5,-,N/A,,Clear,200,2013-10-20 07:35:00
2:55 AM,46.0,36.1,68,30.03,10.0,SSW,3.5,-,N/A,,Clear,200,2013-10-20 07:55:00
3:15 AM,46.2,36.5,69,30.02,10.0,South,6.9,-,N/A,,Clear,190,2013-10-20 08:15:00
3:35 AM,45.7,36.7,71,30.01,10.0,South,6.9,-,N/A,,Clear,180,2013-10-20 08:35:00
3:55 AM,45.3,36.5,71,30.00,10.0,South,4.6,-,N/A,,Clear,170,2013-10-20 08:55:00
4:15 AM,43.7,36.5,76,29.99,10.0,SSE,4.6,-,N/A,,Clear,160,2013-10-20 09:15:00
4:35 AM,43.0,36.5,78,29.99,10.0,SSE,3.5,-,N/A,,Clear,160,2013-10-20 09:35:00
4:55 AM,43.5,36.5,76,29.99,10.0,SE,3.5,-,N/A,,Clear,140,2013-10-20 09:55:00
5:15 AM,43.0,36.3,77,29.99,10.0,ESE,4.6,-,N/A,,Clear,120,2013-10-20 10:15:00
5:35 AM,41.9,36.5,81,29.99,10.0,East,6.9,-,N/A,,Clear,100,2013-10-20 10:35:00
5:55 AM,41.0,36.5,84,29.98,10.0,East,6.9,-,N/A,,Clear,100,2013-10-20 10:55:00
6:15 AM,41.2,36.5,83,29.98,10.0,East,5.8,-,N/A,,Clear,100,2013-10-20 11:15:00
6:35 AM,41.0,36.5,84,29.97,10.0,East,5.8,-,N/A,,Clear,100,2013-10-20 11:35:00
6:55 AM,41.0,36.5,84,29.97,10.0,East,6.9,-,N/A,,Clear,100,2013-10-20 11:55:00
7:15 AM,41.5,36.7,83,29.97,10.0,ESE,8.1,-,N/A,,Clear,110,2013-10-20 12:15:00
7:35 AM,41.4,36.7,83,29.97,10.0,ESE,6.9,-,N/A,,Clear,120,2013-10-20 12:35:00
7:55 AM,41.5,36.7,83,29.96,10.0,ESE,8.1,-,N/A,,Clear,120,2013-10-20 12:55:00
8:15 AM,42.1,37.0,82,29.96,10.0,ESE,6.9,-,N/A,,Clear,120,2013-10-20 13:15:00
8:35 AM,42.8,37.9,83,29.96,10.0,SE,6.9,-,N/A,,Clear,130,2013-10-20 13:35:00
8:55 AM,44.4,39.0,81,29.96,10.0,SE,5.8,-,N/A,,Clear,130,2013-10-20 13:55:00
9:15 AM,47.1,40.3,77,29.96,10.0,SE,9.2,-,N/A,,Clear,140,2013-10-20 14:15:00
9:35 AM,50.0,41.0,71,29.96,10.0,SSE,8.1,-,N/A,,Clear,160,2013-10-20 14:35:00
9:55 AM,52.9,40.6,63,29.96,10.0,SSE,12.7,-,N/A,,Clear,160,2013-10-20 14:55:00
10:15 AM,54.9,41.0,60,29.94,10.0,SSE,13.8,-,N/A,,Clear,160,2013-10-20 15:15:00
10:35 AM,57.9,40.8,53,29.94,10.0,South,15.0,18.4,N/A,,Clear,170,2013-10-20 15:35:00
10:55 AM,59.0,40.8,51,29.93,10.0,South,15.0,-,N/A,,Clear,180,2013-10-20 15:55:00
11:15 AM,61.0,41.2,48,29.93,10.0,South,12.7,20.7,N/A,,Clear,170,2013-10-20 16:15:00
11:35 AM,62.6,41.7,46,29.92,10.0,South,15.0,-,N/A,,Clear,180,2013-10-20 16:35:00
11:55 AM,63.5,41.7,45,29.92,10.0,South,15.0,-,N/A,,Clear,180,2013-10-20 16:55:00
12:15 PM,64.8,42.4,44,29.91,10.0,South,15.0,-,N/A,,Clear,190,2013-10-20 17:15:00
12:35 PM,66.0,42.8,43,29.89,10.0,South,15.0,20.7,N/A,,Clear,190,2013-10-20 17:35:00
12:55 PM,67.5,42.8,41,29.88,10.0,South,17.3,-,N/A,,Clear,180,2013-10-20 17:55:00
1:15 PM,69.3,42.8,38,29.87,10.0,South,15.0,20.7,N/A,,Clear,180,2013-10-20 18:15:00
1:35 PM,70.5,42.4,36,29.86,10.0,South,15.0,-,N/A,,Clear,180,2013-10-20 18:35:00
1:55 PM,72.3,43.0,35,29.85,10.0,South,16.1,-,N/A,,Clear,180,2013-10-20 18:55:00
2:15 PM,72.7,42.3,33,29.83,10.0,South,15.0,-,N/A,,Clear,190,2013-10-20 19:15:00
2:35 PM,73.0,43.3,34,29.82,10.0,South,13.8,20.7,N/A,,Clear,180,2013-10-20 19:35:00
2:55 PM,73.9,43.7,34,29.82,10.0,South,18.4,21.9,N/A,,Clear,170,2013-10-20 19:55:00
3:15 PM,74.7,43.5,33,29.81,10.0,South,17.3,21.9,N/A,,Clear,170,2013-10-20 20:15:00
3:35 PM,75.2,44.1,33,29.80,10.0,South,15.0,21.9,N/A,,Clear,170,2013-10-20 20:35:00
3:55 PM,74.8,44.6,34,29.80,10.0,SSE,11.5,18.4,N/A,,Clear,160,2013-10-20 20:55:00
4:15 PM,75.4,45.7,35,29.80,10.0,SSE,12.7,18.4,N/A,,Clear,150,2013-10-20 21:15:00
4:35 PM,75.4,46.2,35,29.80,10.0,SSE,17.3,-,N/A,,Clear,150,2013-10-20 21:35:00
4:55 PM,75.2,46.4,36,29.79,10.0,SSE,15.0,20.7,N/A,,Clear,160,2013-10-20 21:55:00
5:15 PM,74.8,46.9,37,29.79,10.0,SSE,16.1,-,N/A,,Clear,150,2013-10-20 22:15:00
5:35 PM,74.8,47.3,38,29.79,10.0,SSE,16.1,19.6,N/A,,Clear,150,2013-10-20 22:35:00
5:55 PM,74.5,48.0,39,29.79,10.0,SSE,12.7,-,N/A,,Clear,150,2013-10-20 22:55:00
6:15 PM,73.8,48.6,41,29.79,10.0,SE,12.7,-,N/A,,Clear,140,2013-10-20 23:15:00
6:35 PM,72.5,49.1,44,29.79,10.0,SE,13.8,-,N/A,,Clear,140,2013-10-20 23:35:00
6:55 PM,70.5,49.6,47,29.79,10.0,SE,11.5,-,N/A,,Clear,130,2013-10-20 23:55:00
7:15 PM,68.4,50.2,52,29.80,10.0,ESE,10.4,-,N/A,,Clear,110,2013-10-21 00:15:00
7:35 PM,66.6,50.2,56,29.80,10.0,East,10.4,-,N/A,,Clear,100,2013-10-21 00:35:00
7:55 PM,66.4,50.5,57,29.81,10.0,East,11.5,-,N/A,,Clear,100,2013-10-21 00:55:00
8:15 PM,65.8,50.5,58,29.82,10.0,East,12.7,-,N/A,,Clear,100,2013-10-21 01:15:00
8:35 PM,64.4,50.9,62,29.82,10.0,East,11.5,-,N/A,,Clear,100,2013-10-21 01:35:00
8:55 PM,63.5,50.9,63,29.82,10.0,ESE,10.4,-,N/A,,Clear,110,2013-10-21 01:55:00
9:15 PM,62.6,50.9,66,29.83,10.0,East,10.4,-,N/A,,Clear,100,2013-10-21 02:15:00
9:35 PM,62.6,50.9,66,29.83,10.0,East,11.5,-,N/A,,Clear,100,2013-10-21 02:35:00
9:55 PM,61.7,50.5,67,29.84,10.0,ESE,11.5,-,N/A,,Clear,110,2013-10-21 02:55:00
10:15 PM,61.0,50.2,68,29.85,10.0,East,11.5,-,N/A,,Clear,100,2013-10-21 03:15:00
10:35 PM,61.0,50.0,67,29.85,10.0,East,10.4,-,N/A,,Clear,90,2013-10-21 03:35:00
10:55 PM,60.8,50.0,68,29.87,10.0,East,12.7,-,N/A,,Clear,80,2013-10-21 03:55:00
11:15 PM,60.1,49.5,68,29.88,10.0,ENE,10.4,-,N/A,,Clear,70,2013-10-21 04:15:00
11:35 PM,59.5,49.3,69,29.88,10.0,ENE,9.2,-,N/A,,Clear,70,2013-10-21 04:35:00
11:55 PM,59.4,48.9,68,29.88,10.0,East,11.5,-,N/A,,Clear,80,2013-10-21 04:55:00